TimeCDT,TemperatureF,Dew PointF,Humidity,Sea Level PressureIn,VisibilityMPH,Wind Direction,Wind SpeedMPH,Gust SpeedMPH,PrecipitationIn,Events,Conditions,WindDirDegrees,DateUTC
12:15 AM,37.4,33.8,87,30.22,10.0,SSE,4.6,-,N/A,,Clear,150,2012-10-11 05:15:00
12:35 AM,39.2,33.8,81,30.21,10.0,SE,3.5,-,N/A,,Clear,140,2012-10-11 05:35:00
12:55 AM,39.2,33.8,81,30.21,10.0,SSE,3.5,-,N/A,,Clear,160,2012-10-11 05:55:00
1:15 AM,39.2,33.8,81,30.21,10.0,SSE,3.5,-,N/A,,Clear,150,2012-10-11 06:15:00
1:35 AM,39.2,32.0,75,30.21,10.0,SSE,4.6,-,N/A,,Clear,150,2012-10-11 06:35:00
1:55 AM,37.4,32.0,81,30.22,10.0,Calm,Calm,-,N/A,,Clear,0,2012-10-11 06:55:00
2:15 AM,39.2,32.0,75,30.22,10.0,South,4.6,-,N/A,,Clear,170,2012-10-11 07:15:00
2:35 AM,37.4,30.2,75,30.22,10.0,SE,3.5,-,N/A,,Clear,140,2012-10-11 07:35:00
2:55 AM,37.4,30.2,75,30.21,10.0,SE,3.5,-,N/A,,Clear,140,2012-10-11 07:55:00
3:15 AM,37.4,32.0,81,30.21,10.0,SSE,4.6,-,N/A,,Clear,150,2012-10-11 08:15:00
3:35 AM,37.4,32.0,81,30.20,10.0,SSE,4.6,-,N/A,,Clear,150,2012-10-11 08:35:00
3:55 AM,37.4,32.0,81,30.21,10.0,Calm,Calm,-,N/A,,Clear,0,2012-10-11 08:55:00
4:15 AM,37.4,32.0,81,30.21,10.0,SSE,3.5,-,N/A,,Clear,150,2012-10-11 09:15:00
4:35 AM,37.4,30.2,75,30.20,10.0,SE,3.5,-,N/A,,Clear,130,2012-10-11 09:35:00
4:55 AM,37.4,32.0,81,30.19,10.0,SE,3.5,-,N/A,,Clear,130,2012-10-11 09:55:00
5:15 AM,37.4,32.0,81,30.20,10.0,SSE,4.6,-,N/A,,Clear,160,2012-10-11 10:15:00
5:35 AM,37.4,32.0,81,30.20,10.0,SSE,3.5,-,N/A,,Clear,150,2012-10-11 10:35:00
6:15 AM,39.2,32.0,75,30.19,10.0,SE,3.5,-,N/A,,Mostly Cloudy,140,2012-10-11 11:15:00
6:35 AM,39.2,32.0,75,30.19,10.0,SE,4.6,-,N/A,,Scattered Clouds,140,2012-10-11 11:35:00
6:55 AM,39.2,33.8,81,30.19,10.0,SSE,3.5,-,N/A,,Mostly Cloudy,150,2012-10-11 11:55:00
7:15 AM,39.2,33.8,81,30.19,10.0,SSE,4.6,-,N/A,,Mostly Cloudy,150,2012-10-11 12:15:00
7:35 AM,39.2,33.8,81,30.19,10.0,SSE,3.5,-,N/A,,Mostly Cloudy,150,2012-10-11 12:35:00
7:55 AM,41.0,33.8,76,30.19,10.0,SSE,6.9,-,N/A,,Mostly Cloudy,160,2012-10-11 12:55:00
8:15 AM,42.8,33.8,70,30.20,10.0,SSE,8.1,-,N/A,,Overcast,160,2012-10-11 13:15:00
8:35 AM,44.6,35.6,71,30.20,10.0,SSE,8.1,-,N/A,,Overcast,160,2012-10-11 13:35:00
8:55 AM,46.4,35.6,66,30.20,10.0,SSE,8.1,-,N/A,,Overcast,160,2012-10-11 13:55:00
9:15 AM,46.4,37.4,71,30.20,10.0,South,8.1,-,N/A,,Overcast,170,2012-10-11 14:15:00
9:35 AM,48.2,37.4,66,30.21,10.0,South,9.2,-,N/A,,Overcast,170,2012-10-11 14:35:00
9:55 AM,48.2,37.4,66,30.21,10.0,South,8.1,-,N/A,,Overcast,170,2012-10-11 14:55:00
10:15 AM,50.0,37.4,62,30.22,10.0,South,8.1,-,N/A,,Overcast,170,2012-10-11 15:15:00
10:35 AM,51.8,37.4,58,30.21,10.0,South,10.4,-,N/A,,Overcast,170,2012-10-11 15:35:00
10:55 AM,51.8,39.2,62,30.22,10.0,South,8.1,-,N/A,,Overcast,170,2012-10-11 15:55:00
11:15 AM,53.6,39.2,58,30.21,10.0,SSE,9.2,-,N/A,,Overcast,160,2012-10-11 16:15:00
11:35 AM,53.6,39.2,58,30.22,10.0,SSE,5.8,-,N/A,,Overcast,160,2012-10-11 16:35:00
11:55 AM,55.4,41.0,58,30.21,10.0,SSE,6.9,-,N/A,,Overcast,160,2012-10-11 16:55:00
12:15 PM,55.4,41.0,58,30.21,10.0,SSE,5.8,-,N/A,,Overcast,150,2012-10-11 17:15:00
12:55 PM,57.2,44.6,63,30.19,10.0,South,6.9,-,N/A,,Overcast,180,2012-10-11 17:55:00
1:15 PM,57.2,44.6,63,30.18,10.0,South,10.4,-,N/A,,Overcast,170,2012-10-11 18:15:00
1:35 PM,57.2,44.6,63,30.17,10.0,South,8.1,-,N/A,,Overcast,190,2012-10-11 18:35:00
1:55 PM,57.2,44.6,63,30.16,10.0,South,6.9,-,N/A,,Overcast,180,2012-10-11 18:55:00
2:15 PM,57.2,44.6,63,30.16,10.0,South,6.9,-,N/A,,Overcast,180,2012-10-11 19:15:00
2:35 PM,57.2,44.6,63,30.15,10.0,SSE,9.2,-,N/A,,Overcast,160,2012-10-11 19:35:00
2:55 PM,57.2,44.6,63,30.15,10.0,South,8.1,-,N/A,,Overcast,170,2012-10-11 19:55:00
3:15 PM,57.2,44.6,63,30.15,10.0,South,8.1,-,N/A,,Overcast,180,2012-10-11 20:15:00
3:55 PM,57.2,44.6,63,30.13,10.0,SSE,9.2,-,N/A,,Overcast,150,2012-10-11 20:55:00
4:15 PM,57.2,44.6,63,30.13,10.0,SSE,4.6,-,N/A,,Overcast,150,2012-10-11 21:15:00
4:35 PM,59.0,44.6,59,30.12,10.0,SSE,6.9,-,N/A,,Overcast,160,2012-10-11 21:35:00
5:15 PM,59.0,46.4,63,30.12,10.0,South,6.9,-,N/A,,Overcast,170,2012-10-11 22:15:00
5:35 PM,59.0,46.4,63,30.12,10.0,SSE,5.8,-,N/A,,Overcast,160,2012-10-11 22:35:00
5:55 PM,59.0,46.4,63,30.12,10.0,South,5.8,-,N/A,,Overcast,170,2012-10-11 22:55:00
6:15 PM,59.0,46.4,63,30.12,10.0,SE,4.6,-,N/A,,Overcast,140,2012-10-11 23:15:00
6:35 PM,59.0,46.4,63,30.13,9.0,SSE,3.5,-,N/A,,Overcast,160,2012-10-11 23:35:00
6:55 PM,57.2,46.4,67,30.13,10.0,SSE,3.5,-,N/A,,Overcast,150,2012-10-11 23:55:00
7:15 PM,57.2,48.2,72,30.14,10.0,Calm,Calm,-,N/A,,Overcast,0,2012-10-12 00:15:00
7:35 PM,57.2,46.4,67,30.15,10.0,Calm,Calm,-,N/A,,Overcast,0,2012-10-12 00:35:00
8:15 PM,57.2,48.2,72,30.16,10.0,Calm,Calm,-,N/A,,Overcast,0,2012-10-12 01:15:00
8:35 PM,55.4,48.2,77,30.17,10.0,SE,3.5,-,N/A,,Overcast,140,2012-10-12 01:35:00
8:55 PM,55.4,48.2,77,30.17,10.0,SE,3.5,-,N/A,,Overcast,140,2012-10-12 01:55:00
9:15 PM,55.4,48.2,77,30.18,10.0,SSE,5.8,-,N/A,,Overcast,160,2012-10-12 02:15:00
9:55 PM,55.4,48.2,77,30.19,10.0,SSE,5.8,-,N/A,,Overcast,160,2012-10-12 02:55:00
10:15 PM,55.4,48.2,77,30.19,10.0,SSE,3.5,-,N/A,,Overcast,150,2012-10-12 03:15:00
10:55 PM,55.4,48.2,77,30.20,10.0,ENE,4.6,-,N/A,,Overcast,70,2012-10-12 03:55:00
11:15 PM,55.4,50.0,82,30.20,4.0,SSE,4.6,-,N/A,,Overcast,150,2012-10-12 04:15:00
11:35 PM,53.6,50.0,88,30.20,9.0,Calm,Calm,-,N/A,,Overcast,0,2012-10-12 04:35:00
11:55 PM,53.6,51.8,94,30.21,9.0,Calm,Calm,-,N/A,,Overcast,0,2012-10-12 04:55:00